[[{"header":{"parameterUnit":"m.s-1","parameterCategory":1,"la1":30.2991,"la2":30.254,"lo1":-89.0895,"lo2":-89.0444,"dy":0.0017,"dx":0.0017,"nx":28,"ny":28,"refTime":"2025-12-03T03:00:00:Z","depth":0,"parameterNumber":2,"parameterNumberName":"U-component_of_WINDS"},"data":[0,0,0,0,0,0,0,0,0,0,0,0,0,0,0,0,0,0,0,0,0,0,0,0,0,0,0,0,0,0,0,0,0,0,0,0,0,0,0,0,0,0,0,0,0,0,0,0,0,0,0,0,0,0,0,0,0,0,-4.45,-4.4501,0,-4.4583,-4.4584,-4.4585,-4.4505,-4.4502,-4.4498,-4.4495,-4.4578,-4.4583,-4.4588,0,0,0,0,0,0,0,0,0,0,0,0,0,-4.4268,-4.4272,-4.45,-4.4501,-4.4502,-4.4583,-4.4584,-4.4585,-4.4505,-4.4501,-4.4498,-4.4494,-4.4576,-4.4582,-4.4588,0,0,0,0,0,0,0,0,0,0,0,0,0,-4.4361,-4.4274,-4.4499,-4.4472,-4.447,-4.4582,-4.4584,-4.4585,-4.4506,-4.4501,-4.4497,-4.4492,-4.4574,-4.4581,-4.4589,-4.4732,0,0,-4.4613,-4.4616,0,0,0,0,0,0,0,0,-4.4356,-4.437,-4.4475,-4.4474,-4.4472,-4.4529,-4.4532,-4.4634,-4.4507,-4.4492,-4.4495,-4.449,-4.4565,-4.4573,-4.4599,-4.4736,-4.4739,-4.4613,-4.4618,-4.4621,-4.4624,0,0,0,0,0,0,0,-4.435,-4.4366,-4.4532,-4.4476,-4.4475,-4.4454,-4.4462,-4.4551,-4.4554,-4.4493,-4.4488,-4.4499,-4.4563,-4.4592,-4.46,-4.474,-4.4613,-4.462,-4.4625,-4.4628,-4.4995,-4.5,0,0,0,0,0,0,-4.4347,-4.4361,-4.453,-4.4535,-4.4401,-4.4462,-4.4471,-4.4515,-4.4553,-4.4554,-4.4503,-4.4495,-4.4581,-4.4592,-4.4603,-4.4771,-4.4621,-4.4629,-4.4633,-4.499,-4.4997,-4.5002,0,0,0,0,0,0,-4.4342,-4.4363,-4.4526,-4.4447,-4.4466,-4.4471,-4.4521,-4.4519,-4.4548,-4.456,-4.456,-4.4532,-4.4578,-4.4592,-4.47,-4.4772,-4.4632,-4.4639,-4.4984,-4.4992,-4.4999,-4.5109,0,0,0,0,0,0,-4.4336,-4.4361,-4.4417,-4.4448,-4.447,-4.4624,-4.4526,-4.4524,-4.4562,-4.4552,-4.4587,-4.4588,-4.4575,-4.4689,-4.4708,-4.4781,-4.4645,-4.4978,-4.4988,-4.4997,-4.5098,-4.5119,-4.5137,0,0,0,0,0,-4.4328,-4.4444,-4.442,-4.4441,-4.454,-4.4628,-4.464,-4.4623,-4.4568,-4.4623,-4.463,-4.4587,-4.4762,-4.4701,-4.4721,-4.4797,-4.4973,-4.4985,-4.4996,-4.509,-4.5115,-4.5136,0,0,0,0,0,0,-4.4421,-4.4448,-4.4421,-4.4552,-4.4588,-4.4614,-4.4683,-4.4651,-4.4703,-4.4692,-4.4667,-4.4676,-4.479,-4.4804,-4.4736,-4.4936,-4.4858,-4.4874,-4.4922,-4.4946,-4.4965,-4.4958,-4.4651,0,0,0,0,0,-4.4456,-4.4527,-4.4546,-4.4659,-4.4679,-4.4678,-4.4716,-4.47,-4.4736,-4.4751,-4.4766,-4.4802,-4.4865,-4.4907,-4.4965,-4.51,-4.5106,-4.5163,-4.5182,-4.5198,-4.5211,-4.5282,-4.5307,-4.504,-4.504,-4.504,0,0,-4.4531,-4.4554,-4.46,-4.4679,-4.4705,-4.4776,-4.4692,-4.4772,-4.4824,-4.4762,-4.4865,-4.4878,-4.4916,-4.5038,-4.5092,-4.5053,-4.5286,-4.5212,-4.5225,-4.523,-4.5296,-4.5321,-4.5344,-4.5048,-4.5047,-4.5045,0,0,-4.4702,-4.4728,-4.4824,-4.4852,-4.4893,-4.4891,-4.4915,-4.4946,-4.4952,-4.5054,-4.5009,-4.507,-4.518,-4.5208,-4.5237,-4.5418,-4.5379,-4.5438,-4.5537,-4.5606,-4.5627,-4.5645,-4.5708,-4.5731,-4.5452,-4.5452,-4.5452,0,-4.4789,-4.4897,-4.4877,-4.496,-4.4995,-4.4943,-4.5039,-4.5067,-4.5125,-4.5149,-4.5105,-4.524,-4.5262,-4.5388,-4.5432,-4.5458,-4.5482,-4.5433,-4.5625,-4.5644,-4.5661,-4.572,-4.5744,-4.5459,-4.5458,-4.5457,-4.5457,0,-4.5,-4.5075,-4.5148,-4.5205,-4.5248,-4.5337,-4.533,-4.5375,-4.5355,-4.5358,-4.5462,-4.5487,-4.5548,-4.5577,-4.5558,-4.5701,-4.5675,-4.5629,-4.555,-4.5693,-4.5748,-4.5771,-4.5468,-4.5466,-4.5464,-4.5462,0,0,-4.5233,-4.5278,-4.5304,-4.5329,-4.5369,-4.5426,-4.5512,-4.5573,-4.5611,-4.5653,-4.5723,-4.5816,-4.5773,-4.5805,-4.5789,-4.585,-4.5989,-4.5796,-4.5796,-4.5829,-4.6145,-4.6178,-4.6205,-4.5964,-4.5969,-4.5972,-4.6141,0,-4.5404,-4.5554,-4.5538,-4.568,-4.5748,-4.5699,-4.5773,-4.5805,-4.581,-4.5867,-4.5871,-4.5937,-4.5876,-4.5895,-4.5953,-4.596,-4.6052,-4.5948,-4.6027,-4.603,-4.6017,-4.6234,-4.627,-4.6428,-4.6162,-4.6166,-4.6169,0,-4.5624,-4.5673,-4.5822,-4.5851,-4.5878,-4.5946,-4.5999,-4.6055,-4.609,-4.6088,-4.6125,-4.6097,-4.6181,-4.6102,-4.6216,-4.6146,-4.6177,-4.6185,-4.6191,-4.6196,-4.6107,-4.6243,-4.6478,-4.6501,-4.6203,-4.62,-4.6198,0,-4.5776,-4.588,-4.5981,-4.6004,-4.6041,-4.6089,-4.6106,-4.6136,-4.6173,-4.6219,-4.6242,-4.6298,-4.6328,-4.6371,-4.6359,-4.6302,-4.6475,-4.6395,-4.6475,-4.6475,-4.6512,-4.651,-4.6754,-4.6536,-4.6536,-4.6535,-4.6535,0,-4.5968,-4.6061,-4.605,-4.6113,-4.6214,-4.6194,-4.6295,-4.6306,-4.6333,-4.6395,-4.6356,-4.6415,-4.6396,-4.6454,-4.6445,-4.654,-4.6554,-4.6554,-4.655,-4.6557,-4.6557,-4.6576,-4.6564,-4.6542,-4.654,-4.6539,-4.6538,0,-4.6155,-4.6152,-4.6259,-4.6285,-4.6293,-4.6366,-4.6387,-4.6445,-4.6446,-4.6526,-4.6543,-4.6545,-4.661,-4.6603,-4.6676,-4.667,-4.6787,-4.6771,-4.6776,-4.6771,-4.6851,-4.6843,-4.7114,-4.7148,-4.691,-4.6913,-4.6915,0,-4.6277,-4.6347,-4.638,-4.6419,-4.6439,-4.6504,-4.6541,-4.6524,-4.6564,-4.6608,-4.666,-4.6722,-4.6771,-4.6878,-4.6885,-4.694,-4.6924,-4.7015,-4.6932,-4.6936,-4.6923,-4.6918,-4.6924,-4.7031,-4.7034,-4.7036,-4.7038,0,-4.6493,-4.6488,-4.6544,-4.6599,-4.6644,-4.6687,-4.6725,-4.6759,-4.6745,-4.6792,-4.6859,-4.6897,-4.6972,-4.7033,-4.7085,-4.7101,-4.7067,-4.7064,-4.7085,-4.7092,-4.7091,-4.709,-4.6818,-4.7058,-4.7056,-4.7054,-4.7053,-4.7053,-4.665,-4.6709,-4.6741,-4.6803,-4.683,-4.6866,-4.6921,-4.6929,-4.6985,-4.7045,-4.7031,-4.7106,-4.7137,-4.7203,-4.7225,-4.7282,-4.7249,-4.728,-4.7287,-4.7295,-4.7303,-4.7083,-4.7292,-4.7291,-4.7291,-4.729,-4.729,0,-4.6862,-4.688,-4.6938,-4.6992,-4.7041,-4.7006,-4.7046,-4.7088,-4.7155,-4.7187,-4.7236,-4.7312,-4.7371,-4.7382,-4.7438,-4.7482,-4.7467,-4.7497,-4.7493,-4.7496,-4.7331,-4.7306,-4.7508,-4.7508,-4.7508,-4.7507,-4.7507,-4.7507,-4.6978,-4.7075,-4.7073,-4.7182,-4.7199,-4.7273,-4.7298,-4.7331,-4.7356,-4.7442,-4.7492,-4.7499,-4.7522,-4.7579,-4.7631,-4.7633,-4.7654,-4.769,-4.7685,-4.753,-4.7508,-4.7487,-4.7464,-4.7695,-4.7695,-4.7845,-4.7847,-4.7848]},{"header":{"parameterUnit":"m.s-1","parameterCategory":1,"la1":30.2991,"la2":30.254,"lo1":-89.0895,"lo2":-89.0444,"dy":0.0017,"dx":0.0017,"nx":28,"ny":28,"refTime":"2025-12-03T03:00:00:Z","depth":0,"parameterNumber":3,"parameterNumberName":"V-component_of_WINDS"},"data":[0,0,0,0,0,0,0,0,0,0,0,0,0,0,0,0,0,0,0,0,0,0,0,0,0,0,0,0,0,0,0,0,0,0,0,0,0,0,0,0,0,0,0,0,0,0,0,0,0,0,0,0,0,0,0,0,0,0,0.3926,0.3926,0,0.3902,0.3902,0.3902,0.3867,0.3867,0.3866,0.3866,0.384,0.384,0.384,0,0,0,0,0,0,0,0,0,0,0,0,0,0.3942,0.3942,0.3926,0.3926,0.3926,0.3902,0.3902,0.3902,0.3867,0.3867,0.3866,0.3865,0.384,0.384,0.384,0,0,0,0,0,0,0,0,0,0,0,0,0,0.3928,0.3942,0.3926,0.3906,0.3904,0.3902,0.3902,0.3902,0.3868,0.3867,0.3866,0.3865,0.384,0.384,0.384,0.3857,0,0,0.3839,0.3839,0,0,0,0,0,0,0,0,0.3929,0.3928,0.3909,0.3907,0.3905,0.3887,0.3898,0.3886,0.3868,0.3881,0.3866,0.3864,0.3856,0.3855,0.3852,0.3855,0.3854,0.3839,0.3839,0.3839,0.3839,0,0,0,0,0,0,0,0.393,0.3928,0.3917,0.3909,0.3906,0.3898,0.3895,0.3896,0.3874,0.388,0.3877,0.3875,0.3855,0.3852,0.3851,0.3854,0.3839,0.3839,0.3839,0.3839,0.387,0.3871,0,0,0,0,0,0,0.3934,0.3929,0.3917,0.3916,0.3915,0.3898,0.3895,0.3893,0.3874,0.387,0.3876,0.3874,0.3853,0.3852,0.385,0.3869,0.3839,0.3839,0.3839,0.3869,0.3871,0.3872,0,0,0,0,0,0,0.3934,0.3933,0.3918,0.3922,0.3919,0.3899,0.3898,0.3893,0.3891,0.3871,0.3867,0.3877,0.3852,0.3851,0.3856,0.3868,0.3839,0.3839,0.3868,0.387,0.3871,0.3907,0,0,0,0,0,0,0.3935,0.3934,0.394,0.3922,0.3919,0.3924,0.3898,0.3894,0.3891,0.3888,0.3871,0.3868,0.3852,0.3856,0.3855,0.3867,0.3839,0.3867,0.3869,0.3871,0.3905,0.3909,0.3914,0,0,0,0,0,0.3936,0.395,0.394,0.3939,0.3927,0.3925,0.3923,0.3905,0.3892,0.3898,0.3885,0.3868,0.3867,0.3857,0.3856,0.3868,0.3866,0.3868,0.3871,0.3903,0.3908,0.3913,0,0,0,0,0,0,0.3969,0.3948,0.3936,0.3946,0.3938,0.3919,0.3926,0.3912,0.3907,0.3904,0.3881,0.3877,0.3885,0.3877,0.3866,0.3883,0.3864,0.3866,0.3889,0.3894,0.3898,0.39,0.3838,0,0,0,0,0,0.3978,0.3978,0.3959,0.397,0.3966,0.3947,0.3946,0.3932,0.3923,0.3919,0.3906,0.3898,0.3895,0.3894,0.3891,0.3903,0.3899,0.3911,0.3915,0.3919,0.3921,0.3928,0.3933,0.3879,0.3879,0.3879,0,0,0.3995,0.3984,0.3985,0.3976,0.3968,0.3969,0.3944,0.3946,0.3947,0.3919,0.3923,0.3914,0.3903,0.3912,0.3915,0.3905,0.3935,0.3922,0.3925,0.3925,0.3931,0.3936,0.3941,0.388,0.388,0.388,0,0,0.4028,0.4019,0.4027,0.402,0.4008,0.3996,0.3998,0.3982,0.3975,0.3979,0.3958,0.3958,0.3954,0.3947,0.3943,0.3975,0.3959,0.3974,0.3998,0.4005,0.4009,0.4013,0.4024,0.4029,0.3976,0.3976,0.3976,0,0.4051,0.4053,0.4033,0.4037,0.4034,0.4009,0.4017,0.4011,0.3999,0.3997,0.3986,0.3981,0.3972,0.3979,0.3987,0.3984,0.3986,0.3976,0.401,0.4013,0.4017,0.4028,0.4032,0.3978,0.3978,0.3978,0.3978,0,0.4082,0.4083,0.4091,0.4081,0.4078,0.4084,0.4066,0.4065,0.4053,0.4041,0.4046,0.4034,0.4028,0.4029,0.4016,0.4035,0.4029,0.4014,0.3994,0.4024,0.4034,0.4038,0.3981,0.398,0.398,0.3979,0,0,0.4135,0.4115,0.4118,0.4113,0.4099,0.4099,0.4104,0.4099,0.41,0.4092,0.4096,0.4094,0.4081,0.4076,0.4062,0.4068,0.4095,0.4053,0.4052,0.4062,0.4116,0.4127,0.4132,0.4084,0.4085,0.4085,0.4117,0,0.4166,0.4173,0.4156,0.4168,0.4169,0.4146,0.415,0.4142,0.4132,0.4131,0.4119,0.4118,0.41,0.4098,0.4103,0.409,0.4105,0.4088,0.4088,0.4088,0.4092,0.4137,0.4149,0.418,0.412,0.4121,0.4122,0,0.4202,0.4197,0.421,0.4195,0.4195,0.4199,0.4194,0.4193,0.4184,0.4176,0.4171,0.4155,0.4159,0.414,0.4146,0.4134,0.4133,0.4127,0.4128,0.4128,0.4107,0.4139,0.4189,0.4193,0.4127,0.4127,0.4126,0,0.4241,0.4237,0.4244,0.4241,0.4224,0.4228,0.4221,0.4211,0.4209,0.4204,0.4203,0.4198,0.4195,0.4192,0.4176,0.4163,0.4183,0.4163,0.4177,0.4178,0.4182,0.4182,0.4234,0.4181,0.4181,0.4181,0.4181,0,0.4277,0.4285,0.4261,0.4266,0.4275,0.4255,0.4264,0.4255,0.4246,0.4248,0.4228,0.423,0.4208,0.4208,0.4195,0.4202,0.4201,0.4195,0.4191,0.4197,0.4198,0.4196,0.4194,0.4182,0.4182,0.4182,0.4181,0,0.4321,0.4306,0.4312,0.4296,0.4292,0.43,0.4286,0.4289,0.4278,0.4281,0.4281,0.4263,0.4262,0.4245,0.424,0.4231,0.4244,0.4236,0.4247,0.4245,0.4261,0.426,0.4313,0.4319,0.4262,0.4263,0.4263,0,0.4346,0.4352,0.4337,0.4337,0.4332,0.4332,0.433,0.4311,0.431,0.43,0.4305,0.4303,0.43,0.43,0.4286,0.4283,0.4275,0.4294,0.4274,0.428,0.4276,0.4276,0.4277,0.4298,0.4299,0.43,0.43,0,0.4391,0.4383,0.4382,0.4378,0.4376,0.4372,0.4366,0.4368,0.4347,0.4347,0.4346,0.4344,0.434,0.4338,0.4332,0.4325,0.4309,0.4306,0.431,0.4316,0.4322,0.432,0.4259,0.4305,0.4305,0.4304,0.4304,0.4304,0.4427,0.4431,0.4422,0.4421,0.4415,0.441,0.4413,0.4402,0.4401,0.4396,0.4385,0.4386,0.4377,0.4368,0.4362,0.4363,0.4354,0.4358,0.4359,0.4361,0.4364,0.4322,0.4362,0.4362,0.4362,0.4361,0.4361,0,0.4472,0.4464,0.4464,0.4457,0.4456,0.4442,0.4435,0.4436,0.4437,0.443,0.4428,0.4427,0.4425,0.4412,0.4409,0.4412,0.4405,0.4412,0.4412,0.441,0.4373,0.4371,0.4418,0.4418,0.4418,0.4418,0.4418,0.4418,0.4495,0.4502,0.4493,0.4497,0.449,0.4491,0.4489,0.4485,0.4479,0.4479,0.4478,0.4469,0.446,0.4456,0.4454,0.445,0.445,0.4459,0.4453,0.4418,0.4413,0.4408,0.4406,0.4459,0.4459,0.4491,0.4491,0.4491]}]]